Lobo

Go HERE for most recent data if this page is not up to date.

Jump to table bottom
Date/Time Temp deg F RH % 24 Hr Snow (in) Snow Depth (in) H2O (in)
12/07 03:00 14.2 63 0.2 38.4 0.00
12/07 02:00 14.0 65 0.1 38.3 0.00
12/07 01:00 14.5 68 0.1 38.4 0.00
12/07 00:00 14.3 67 0.1 38.5 0.00
12/06 23:00 14.7 68 0.1 38.6 0.00
12/06 22:00 15.1 67 0.0 38.6 0.00
12/06 21:00 15.1 67 0.0 38.7 0.00
12/06 20:00 15.5 66 0.0 38.7 0.00
12/06 19:00 16.3 64 0.0 38.8 0.00
12/06 18:00 16.5 60 0.1 38.9 0.00
12/06 17:00 17.0 61 -0.0 38.7 0.00
12/06 16:00 17.4 59 0.0 38.9 0.00
12/06 15:00 17.5 59 -0.0 39.0 0.00
12/06 14:00 16.7 60 0.0 39.1 0.00
12/06 13:00 16.0 68 0.0 39.2 0.00
12/06 12:00 16.3 68 0.0 39.2 0.00
12/06 11:00 15.1 70 0.2 39.3 0.00
12/06 10:00 13.7 71 0.2 39.3 0.00
12/06 09:00 13.2 73 0.2 39.4 0.00
12/06 08:00 12.9 74 0.2 39.5 0.00
12/06 07:00 12.8 75 0.2 39.5 0.00
12/06 06:00 12.6 75 0.2 39.7 0.00
12/06 05:00 12.6 73 0.2 39.8 0.00
12/06 04:00 12.6 74 0.1 39.9 0.00
12/06 03:00 12.6 77 0.1 39.9 0.00
12/06 02:00 12.5 74 0.2 40.1 0.00
12/06 01:00 12.4 76 0.0 39.8 0.00
12/06 00:00 12.5 77 0.0 40.2 0.00
.